Вернуться в каталог

STARLINK-35770

АктивенСвязьVLEO
NORAD 66977·PAYLOAD·🇺🇸 United States

Запущен Dec 8, 2025 с Cape Canaveral Space Force Station

Loading…

Ближайшие Пролёты (ближайшие 24 часа)

TLE

СвежийSource: CelesTrak SupGP

Эпоха: Sep 14, 2026, 21:33 UTC

1 66977C 25288U   26257.89840278  .00049639  00000+0  17977-2 0  2578
2 66977  43.0043  35.1171 0001757 276.7015  22.6510 15.27557770    10

Отслеживайте STARLINK-35770 в реальном времени с AllMySat

Download on the App Store